EUTELSAT 3B

Last updated on Jan. 29, 2020, 4:37 a.m. UTC

1 39773U 14030A   20028.78712808  .00000019  00000-0  00000-0 0  9990
2 39773   0.0637  32.5844 0003348 193.5282 187.8392  1.00273876 20689
UTC
Height (km)
Latitude
Longitude
Inclination
Orbital Period
UTC large
Height (km)
Speed (km/s)
/
Latitude / Longitude
Inclination (degrees)
Orbital Period (minutes)
Azimuth
Elevation
Range (km)
Doppler Factor
iOS Compass Heading
iOS Angle

Next 30 passes for location: Hong Kong

Rise time Rise Azimuth (degrees) Set time Set Azimuth (degrees) Duration Max altitude (degrees)

No matching passes for this satellites